• In Uzbekistan
  • List of Countries
  • For 7 days
  • Water Temperature
  • Weather Map
  • Weather Widgets
  • user-avatar
    Login

    Hourly Weather Bobo-Dioulasso

    Today, 12 November, Tuesday

    Time Temperature Precipitation Wind Pressure Humidity
    00:00 +28°C° 0 mm 1 mps 720 mmHg 46%
    01:00 +28°C° 0 mm 1 mps 720 mmHg 48%
    02:00 +28°C° 0 mm 1 mps 720 mmHg 49%
    03:00 +27°C° 0 mm 1 mps 719 mmHg 50%
    04:00 +27°C° 0 mm 1 mps 720 mmHg 49%
    05:00 +26°C° 0 mm 1 mps 720 mmHg 49%
    06:00 +26°C° 0 mm 1 mps 720 mmHg 49%
    07:00 +28°C° 0 mm 1 mps 721 mmHg 42%
    08:00 +30°C° 0 mm 1 mps 721 mmHg 34%
    09:00 +31°C° 0 mm 2 mps 722 mmHg 27%
    10:00 +34°C° 0 mm 2 mps 721 mmHg 25%
    11:00 +35°C° 0 mm 2 mps 721 mmHg 23%
    12:00 +37°C° 0 mm 2 mps 721 mmHg 22%
    13:00 +37°C° 0 mm 2 mps 720 mmHg 22%
    14:00 +37°C° 0 mm 1 mps 719 mmHg 22%
    15:00 +37°C° 0 mm 1 mps 719 mmHg 21%
    16:00 +35°C° 0 mm 1 mps 719 mmHg 24%
    17:00 +34°C° 0 mm 1 mps 719 mmHg 27%
    18:00 +32°C° 0 mm 1 mps 719 mmHg 30%
    19:00 +31°C° 0 mm 1 mps 719 mmHg 31%
    20:00 +28°C° 0 mm 0 mps 720 mmHg 32%
    21:00 +28°C° 0 mm 0 mps 721 mmHg 33%
    22:00 +27°C° 0 mm 0 mps 721 mmHg 34%
    23:00 +27°C° 0 mm 0 mps 721 mmHg 35%

    Tomorrow, 13 November, Wednesday

    Time Temperature Precipitation Wind Pressure Humidity
    00:00 +26°C° 0 mm 0 mps 720 mmHg 36%
    01:00 +27°C° 0 mm 1 mps 720 mmHg 36%
    02:00 +27°C° 0 mm 1 mps 720 mmHg 36%
    03:00 +26°C° 0 mm 1 mps 720 mmHg 36%
    04:00 +26°C° 0 mm 1 mps 720 mmHg 34%
    05:00 +25°C° 0 mm 1 mps 720 mmHg 32%
    06:00 +24°C° 0 mm 1 mps 720 mmHg 31%
    07:00 +26°C° 0 mm 2 mps 721 mmHg 27%
    08:00 +28°C° 0 mm 2 mps 721 mmHg 24%
    09:00 +30°C° 0 mm 3 mps 722 mmHg 21%
    10:00 +33°C° 0 mm 3 mps 722 mmHg 20%
    11:00 +35°C° 0 mm 3 mps 721 mmHg 19%
    12:00 +36°C° 0 mm 3 mps 721 mmHg 18%
    13:00 +37°C° 0 mm 2 mps 721 mmHg 19%
    14:00 +37°C° 0 mm 2 mps 720 mmHg 20%
    15:00 +37°C° 0 mm 1 mps 720 mmHg 20%
    16:00 +35°C° 0 mm 1 mps 720 mmHg 23%
    17:00 +33°C° 0 mm 1 mps 720 mmHg 25%
    18:00 +31°C° 0 mm 1 mps 720 mmHg 28%
    19:00 +29°C° 0 mm 0 mps 720 mmHg 29%
    20:00 +28°C° 0 mm 0 mps 721 mmHg 30%
    21:00 +27°C° 0 mm 0 mps 721 mmHg 31%
    22:00 +27°C° 0 mm 0 mps 721 mmHg 31%
    23:00 +26°C° 0 mm 0 mps 721 mmHg 32%

    Day after tomorrow, 14 November, Thursday

    Time Temperature Precipitation Wind Pressure Humidity
    00:00 +27°C° 0 mm 1 mps 721 mmHg 32%
    01:00 +27°C° 0 mm 1 mps 721 mmHg 32%
    02:00 +26°C° 0 mm 1 mps 720 mmHg 31%
    03:00 +25°C° 0 mm 1 mps 720 mmHg 31%
    04:00 +25°C° 0 mm 1 mps 720 mmHg 30%
    05:00 +24°C° 0 mm 1 mps 720 mmHg 29%
    06:00 +24°C° 0 mm 1 mps 721 mmHg 29%
    07:00 +26°C° 0 mm 2 mps 721 mmHg 26%
    08:00 +28°C° 0 mm 3 mps 722 mmHg 24%
    09:00 +30°C° 0 mm 3 mps 723 mmHg 22%
    10:00 +33°C° 0 mm 3 mps 722 mmHg 20%
    11:00 +35°C° 0 mm 4 mps 722 mmHg 18%
    12:00 +36°C° 0 mm 4 mps 722 mmHg 15%
    13:00 +37°C° 0 mm 3 mps 721 mmHg 15%
    14:00 +37°C° 0 mm 3 mps 720 mmHg 15%
    15:00 +38°C° 0 mm 3 mps 720 mmHg 14%
    16:00 +36°C° 0 mm 2 mps 720 mmHg 17%
    17:00 +33°C° 0 mm 1 mps 720 mmHg 19%
    18:00 +29°C° 0 mm 0 mps 719 mmHg 22%
    19:00 +28°C° 0 mm 0 mps 720 mmHg 23%
    20:00 +27°C° 0 mm 0 mps 720 mmHg 23%
    21:00 +26°C° 0 mm 0 mps 721 mmHg 24%
    22:00 +26°C° 0 mm 0 mps 721 mmHg 25%
    23:00 +25°C° 0 mm 0 mps 721 mmHg 26%

    15 November, Friday

    Time Temperature Precipitation Wind Pressure Humidity
    00:00 +25°C° 0 mm 0 mps 720 mmHg 27%
    01:00 +24°C° 0 mm 0 mps 720 mmHg 27%
    02:00 +24°C° 0 mm 0 mps 720 mmHg 28%
    03:00 +25°C° 0 mm 1 mps 720 mmHg 28%
    04:00 +25°C° 0 mm 1 mps 720 mmHg 28%
    05:00 +25°C° 0 mm 1 mps 720 mmHg 28%
    06:00 +24°C° 0 mm 1 mps 720 mmHg 28%
    07:00 +26°C° 0 mm 1 mps 721 mmHg 26%
    08:00 +29°C° 0 mm 2 mps 721 mmHg 24%
    09:00 +31°C° 0 mm 2 mps 722 mmHg 21%
    10:00 +32°C° 0 mm 2 mps 722 mmHg 19%
    11:00 +35°C° 0 mm 2 mps 721 mmHg 17%
    12:00 +37°C° 0 mm 3 mps 721 mmHg 15%
    13:00 +37°C° 0 mm 2 mps 720 mmHg 15%
    14:00 +38°C° 0 mm 2 mps 720 mmHg 15%
    15:00 +38°C° 0 mm 2 mps 719 mmHg 14%
    16:00 +35°C° 0 mm 1 mps 719 mmHg 17%
    17:00 +33°C° 0 mm 1 mps 719 mmHg 19%
    18:00 +31°C° 0 mm 1 mps 719 mmHg 21%
    19:00 +28°C° 0 mm 0 mps 719 mmHg 22%
    20:00 +28°C° 0 mm 0 mps 720 mmHg 22%
    21:00 +27°C° 0 mm 0 mps 721 mmHg 23%
    22:00 +26°C° 0 mm 0 mps 720 mmHg 23%
    23:00 +26°C° 0 mm 0 mps 720 mmHg 24%

    16 November, Saturday

    Time Temperature Precipitation Wind Pressure Humidity
    00:00 +26°C° 0 mm 0 mps 720 mmHg 24%
    01:00 +25°C° 0 mm 0 mps 720 mmHg 25%
    02:00 +25°C° 0 mm 0 mps 719 mmHg 26%
    03:00 +24°C° 0 mm 0 mps 719 mmHg 26%
    04:00 +24°C° 0 mm 0 mps 719 mmHg 27%
    05:00 +23°C° 0 mm 0 mps 720 mmHg 27%
    06:00 +23°C° 0 mm 0 mps 720 mmHg 27%
    07:00 +27°C° 0 mm 1 mps 720 mmHg 26%
    08:00 +29°C° 0 mm 1 mps 721 mmHg 24%
    09:00 +31°C° 0 mm 1 mps 722 mmHg 22%
    10:00 +32°C° 0 mm 2 mps 721 mmHg 20%
    11:00 +35°C° 0 mm 2 mps 721 mmHg 17%
    12:00 +37°C° 0 mm 3 mps 720 mmHg 15%
    13:00 +37°C° 0 mm 3 mps 720 mmHg 15%
    14:00 +38°C° 0 mm 2 mps 719 mmHg 14%
    15:00 +38°C° 0 mm 2 mps 719 mmHg 14%
    16:00 +36°C° 0 mm 2 mps 719 mmHg 16%
    17:00 +33°C° 0 mm 1 mps 718 mmHg 18%
    18:00 +31°C° 0 mm 1 mps 718 mmHg 20%
    19:00 +29°C° 0 mm 0 mps 719 mmHg 20%
    20:00 +28°C° 0 mm 0 mps 720 mmHg 21%
    21:00 +27°C° 0 mm 0 mps 720 mmHg 21%
    22:00 +27°C° 0 mm 0 mps 720 mmHg 22%
    23:00 +26°C° 0 mm 0 mps 720 mmHg 22%

    17 November, Sunday

    Time Temperature Precipitation Wind Pressure Humidity
    00:00 +26°C° 0 mm 0 mps 720 mmHg 23%
    01:00 +25°C° 0 mm 0 mps 720 mmHg 24%
    02:00 +25°C° 0 mm 0 mps 720 mmHg 24%
    03:00 +24°C° 0 mm 0 mps 719 mmHg 25%
    04:00 +24°C° 0 mm 0 mps 720 mmHg 26%
    05:00 +23°C° 0 mm 0 mps 720 mmHg 27%
    06:00 +23°C° 0 mm 0 mps 720 mmHg 27%
    07:00 +27°C° 0 mm 1 mps 721 mmHg 25%
    08:00 +29°C° 0 mm 1 mps 721 mmHg 23%
    09:00 +31°C° 0 mm 2 mps 722 mmHg 20%
    10:00 +34°C° 0 mm 3 mps 722 mmHg 18%
    11:00 +36°C° 0 mm 3 mps 721 mmHg 15%
    12:00 +38°C° 0 mm 4 mps 721 mmHg 13%
    13:00 +40°C° 0 mm 4 mps 720 mmHg 12%
    14:00 +39°C° 0 mm 3 mps 720 mmHg 12%
    15:00 +39°C° 0 mm 3 mps 719 mmHg 12%
    16:00 +37°C° 0 mm 2 mps 719 mmHg 14%
    17:00 +35°C° 0 mm 2 mps 719 mmHg 16%
    18:00 +32°C° 0 mm 1 mps 719 mmHg 19%
    19:00 +31°C° 0 mm 1 mps 720 mmHg 19%
    20:00 +28°C° 0 mm 0 mps 720 mmHg 20%
    21:00 +27°C° 0 mm 0 mps 721 mmHg 21%
    22:00 +27°C° 0 mm 0 mps 721 mmHg 21%
    23:00 +26°C° 0 mm 0 mps 721 mmHg 22%
    Show more